Regional Weather Roundup
Issued by NWS

Home | Current Version | Previous Version | Text Only | Print | Product List | Glossary On
Versions: 1 2 3 4 5 6 7 8 9 10 11 12 13 14 15 16 17 18 19 20 21 22 23 24 25 26 27 28 29 30 31 32 33 34 35 36 37 38 39 40 41 42 43 44 45 46 47 48 49 50
000
ASUS43 KIND 162309
RWRIN

WEATHER ROUNDUP FOR INDIANA
NATIONAL WEATHER SERVICE INDIANAPOLIS IN
600 PM EST MON JAN 16 2017

NOTE: "FAIR" INDICATES FEW OR NO CLOUDS BELOW 12,000 FEET WITH NO
SIGNIFICANT WEATHER AND/OR OBSTRUCTIONS TO VISIBILITY.

* - STATION DOES NOT REPORT WEATHER SUCH AS PRECIPITATION OR FOG.

+ - STATION NOT QUALITY CONTROLLED BY THE NATIONAL WEATHER SERVICE.
    USE DATA WITH CAUTION...ESPECIALLY DEWPOINT AND RELATIVE
    HUMIDITY OBSERVATIONS.

INZ001>003-010>013-019-020-170000-
NORTHWEST INDIANA

CITY           SKY/WX    TMP DP  RH WIND       PRES   REMARKS
GARY /AIRPORT/ LGT RAIN  37  37 100 E6        30.07F VSB 3/4
KNOX *+        CLOUDY    36  32  87 E6        30.08S VSB 1/2
LA PORTE +     FOG       35  35  99 SE8       30.08F VSB 1/2 WCI  28
MICHIGAN CITY+ DRIZZLE   36  36 100 SE6       30.07F
MONTICELLO +   LGT RAIN  38  37  94 E5        30.06F VSB 3/4
RENSSELAER +   FOG       37  37 100 E10       30.06F VSB 1/2
VALPARAISO     FOG       37  37 100 E8        30.07F VSB 1/4

$$

LMZ046-743>745-170000-
SOUTHERN LAKE MICHIGAN

STATION/POSITION TIME  TEMP    WIND        PRES    WAVE
                       AIR SEA DIR/SP/G            HT
                 (UTC) (F)     (DEG/KT/KT) (MB)    (FT)
BURNS HARBOR     2240   38     110/  9/ 11 1018.3F
MICHIGAN CITY    2240   36     100/  4/  6   N/A

$$

INZ004-005-014>016-021>024-170000-
NORTH CENTRAL INDIANA

CITY           SKY/WX    TMP DP  RH WIND       PRES   REMARKS
ELKHART        DRIZZLE   36  36 100 SE9       30.10F
GOSHEN         LGT RAIN  35  33  92 SE9       30.11F FOG     WCI  28
LOGANSPORT +   FOG       36  36 100 SE9       30.09F VSB 1/4
PERU/GRISSOM   CLOUDY    37  37 100 E7        30.07F FOG
ROCHESTER +    FOG       37  37 100 E8        30.10F VSB 3/4
SOUTH BEND     LGT RAIN  35  35 100 SE10      30.09F VSB 1/2 WCI  27
WARSAW +       HAZE      34  30  86 E9        30.10F VSB 3/4 WCI  26

$$

INZ006>009-017-018-025>027-170000-
NORTHEAST INDIANA

CITY           SKY/WX    TMP DP  RH WIND       PRES   REMARKS
ANGOLA *+      CLOUDY    34  34 100 E9        30.12F VSB 1   WCI  26
AUBURN +       FOG       34  32  93 E6        30.15S VSB 1/2 WCI  29
FORT WAYNE     FOG       36  34  92 E8        30.13S VSB 1
HUNTINGTON +   FOG       36  35  96 E7        30.12S VSB 1
KENDALLVILLE + FOG       33  33 100 E8        30.13S VSB 1/4 WCI  27

$$

INZ028-029-035-036-043>045-051>053-170000-
WEST CENTRAL INDIANA

CITY           SKY/WX    TMP DP  RH WIND       PRES   REMARKS
CRAWFORDSVL +  DRIZZLE   46  46 100 SE10      30.06F
GREENCASTLE +  CLOUDY    46  46 100 SE8       30.08S FOG
LAFAYETTE      CLOUDY    44  44 100 E8        30.05F FOG
TERRE HAUTE    CLOUDY    51  49  92 SE12      30.04F

$$

INZ030>032-037>040-046>048-054>057-064-065-170000-
CENTRAL INDIANA

CITY           SKY/WX    TMP DP  RH WIND       PRES   REMARKS
CP ATTERBURY + RAIN      46  46 100 CALM      30.11F
COLUMBUS       LGT RAIN  50  50 100 SE8       30.12F FOG
FISHERS *+     CLOUDY    46  46 100 S8        30.10
FRANKFORT +    LGT RAIN  46  45  96 SE9       30.08F
GREENWOOD *+   CLOUDY    49  49 100 SE7       30.10F
INDIANAPOLIS   LGT RAIN  47  46  97 SE9       30.09F VSB 1
-EAGLE CREEK   LGT RAIN  48  46  93 SE7       30.09F FOG
KOKOMO +       CLOUDY    40  40 100 E8        30.09F FOG
MT COMFORT *+  CLOUDY    48  46  93 SE7       30.11F
SHELBYVILLE    RAIN      50  47  89 SE6       30.11F FOG
ZIONSVILLE +   LGT RAIN  46  45  97 SE8       30.09F

$$

INZ033-034-041-042-049-050-058-059-170000-
EAST CENTRAL INDIANA

CITY           SKY/WX    TMP DP  RH WIND       PRES   REMARKS
MUNCIE         CLOUDY    49  46  90 S6        30.11F FOG

$$

INZ060-061-067>069-081>083-085>088-170000-
SOUTHWEST INDIANA

CITY           SKY/WX    TMP DP  RH WIND       PRES   REMARKS
EVANSVILLE     CLOUDY    56  53  90 E3        30.06F
HUNTINGBURG *+ CLOUDY    55  53  93 SE9       30.07F
WASHINGTON +   CLOUDY    53  51  94 SE10      30.05F

$$

INZ062-063-066-070>080-084-089>092-170000-
SOUTH CENTRAL AND SOUTHEAST INDIANA

CITY           SKY/WX    TMP DP  RH WIND       PRES   REMARKS
BLOOMINGTON    LGT RAIN  50  48  93 SE7       30.07F VSB 3/4
MADISON *+     CLOUDY    50  48  93 CALM      30.15R
NORTH VERNON + RAIN     N/A N/A N/A CALM      30.13F
SEYMOUR +      LGT RAIN  52  52 100 E7        30.11F

$$




USA.gov is the U.S. government's official web portal to all federal, state and local government web resources and services.